Weather History for Houston Clover, TX

Change the Weather History Date:

Tuesday, September 17, 2013

  Actual Average (KHOU) Record (KHOU)
Temperature  
Mean Temperature 84 °F 80 °F  
Max Temperature 93 °F 89 °F 100 °F (1995)
Min Temperature 78 °F 70 °F 55 °F (2000)
Degree Days  
Heating Degree Days 0 0  
Month to date heating degree days 0  
Since 1 July heating degree days 0  
Cooling Degree Days 20 14  
Month to date cooling degree days 280  
Year to date cooling degree days 2662  
Growing Degree Days 34 (Base 50)    
Moisture  
Dew Point 73 °F    
Average Humidity 71    
Maximum Humidity 90    
Minimum Humidity 47    
Precipitation  
Precipitation 0.00 in 0.13 in 1.85 in (1968)
Month to date precipitation 2.46  
Year to date precipitation 34.33  
Sea Level Pressure  
Sea Level Pressure 30.01 in    
Wind  
Wind Speed 5 mph (East)    
Max Wind Speed 17 mph    
Max Gust Speed 23 mph    
Visibility 10 miles    
Events Rain    
T = Trace of Precipitation, MM = Missing Value Source: NWS Daily Summary

Daily Weather History Graph

Daily Weather History Graph

Search for Another Location

Airport:

Trip Planner

Search our weather history database for the weather conditions in past years. The results will help you decide how hot, cold, wet, or windy it might be!

Date:

Astronomy

Sep. 17, 2013 Rise Set
Actual Time 7:06 AM CDT 7:23 PM CDT
Civil Twilight 6:43 AM CDT 7:47 PM CDT
Nautical Twilight 6:15 AM CDT 8:14 PM CDT
Astronomical Twilight 5:47 AM CDT 8:42 PM CDT
Moon 6:07 PM CDT (9/17) 5:08 AM CDT (9/17)
Length of Visible Light 13h 04m
Length of Day
12h 16m
Waxing Gibbous, 96% of the Moon is Illuminated
Sep 17
Waxing Gibbous
Sep 19
Full
Sep 26
Last Quarter
Oct 4
New
Oct 11
First Quarter

Hourly Weather History & Observations

Time (CDT) Temp. Heat Index Dew Point Humidity Pressure Visibility Wind Dir Wind Speed Gust Speed Precip Events Conditions
12:53 AM 79.0 °F - 73.9 °F 84% 30.01 in 10.0 mi Calm Calm - N/A   Clear
1:53 AM 80.1 °F 84.5 °F 73.9 °F 81% 30.01 in 10.0 mi Calm Calm - N/A   Partly Cloudy
2:53 AM 80.1 °F 84.5 °F 73.9 °F 81% 30.01 in 10.0 mi ENE 3.5 mph - N/A   Clear
3:31 AM 82.4 °F 89.5 °F 75.2 °F 79% 30.00 in 10.0 mi Calm Calm - N/A   Mostly Cloudy
3:53 AM 81.0 °F 86.7 °F 75.0 °F 82% 30.00 in 10.0 mi East 3.5 mph - N/A   Partly Cloudy
4:53 AM 79.0 °F - 75.0 °F 88% 30.00 in 10.0 mi NE 4.6 mph - N/A   Clear
5:53 AM 78.1 °F - 75.0 °F 90% 29.99 in 10.0 mi ENE 4.6 mph - N/A   Clear
6:53 AM 79.0 °F - 75.0 °F 88% 30.01 in 10.0 mi North 3.5 mph - N/A   Clear
7:53 AM 80.1 °F 85.4 °F 75.9 °F 87% 30.03 in 8.0 mi NE 5.8 mph - N/A   Clear
8:53 AM 82.9 °F 90.8 °F 75.9 °F 79% 30.04 in 10.0 mi ENE 9.2 mph - N/A   Clear
9:36 AM 86.0 °F 93.4 °F 73.4 °F 66% 30.05 in 10.0 mi Variable 5.8 mph - N/A   Mostly Cloudy
9:48 AM 87.8 °F 97.6 °F 75.2 °F 66% 30.05 in 10.0 mi East 10.4 mph - N/A   Mostly Cloudy
9:53 AM 86.0 °F 93.8 °F 73.9 °F 67% 30.05 in 10.0 mi ESE 12.7 mph - N/A   Mostly Cloudy
10:53 AM 88.0 °F 96.5 °F 73.9 °F 63% 30.06 in 10.0 mi East 10.4 mph - N/A   Mostly Cloudy
11:01 AM 87.8 °F 95.6 °F 73.4 °F 62% 30.06 in 10.0 mi East 11.5 mph 19.6 mph N/A   Scattered Clouds
11:53 AM 88.0 °F 95.6 °F 73.0 °F 61% 30.05 in 10.0 mi ESE 11.5 mph 19.6 mph N/A   Scattered Clouds
12:53 PM 91.0 °F 97.6 °F 71.1 °F 52% 30.04 in 10.0 mi East 10.4 mph 18.4 mph N/A   Scattered Clouds
1:53 PM 91.9 °F 96.9 °F 69.1 °F 47% 30.02 in 10.0 mi SE 17.3 mph 23.0 mph N/A   Scattered Clouds
2:53 PM 91.0 °F 97.6 °F 71.1 °F 52% 29.99 in 10.0 mi East 15.0 mph 20.7 mph 0.00 in Rain Light Rain
3:53 PM 90.0 °F 96.4 °F 71.1 °F 54% 29.97 in 10.0 mi East 11.5 mph - 0.00 in   Partly Cloudy
4:53 PM 90.0 °F 96.4 °F 71.1 °F 54% 29.96 in 10.0 mi ESE 13.8 mph - N/A   Scattered Clouds
5:53 PM 88.0 °F 94.7 °F 72.0 °F 59% 29.96 in 10.0 mi ESE 9.2 mph - N/A   Partly Cloudy
6:53 PM 87.1 °F 94.5 °F 73.0 °F 63% 29.96 in 10.0 mi SE 8.1 mph - N/A   Clear
7:53 PM 84.9 °F 91.4 °F 73.0 °F 67% 29.96 in 10.0 mi SSE 4.6 mph - N/A   Clear
8:53 PM 82.0 °F 87.9 °F 73.9 °F 76% 29.98 in 10.0 mi Calm Calm - N/A   Clear
9:53 PM 82.0 °F 87.9 °F 73.9 °F 76% 29.99 in 10.0 mi Calm Calm - N/A   Clear
10:53 PM 82.0 °F 87.9 °F 73.9 °F 76% 29.99 in 10.0 mi Calm Calm - N/A   Clear
11:53 PM 78.1 °F - 73.0 °F 84% 30.00 in 10.0 mi Calm Calm - N/A   Clear